Location: Balaclava NSW 2575, Australia
(34.4510°S, 150.4953°E)
Time: 04:48:30
(UTC+10:00)

Vanguard 2 Rocket - All Passes

Search period start: 19 June 2021 00:00
Search period end: 29 June 2021 00:00
Orbit: 554 x 3326 km, 32.9° (Epoch: 17 June)

Date Brightness Start Highest point End Pass type
(mag) Time Alt. Az. Time Alt. Az. Time Alt. Az.
19 Jun - 07:52:58 10° NW 07:57:24 51° NNE 08:04:18 10° E daylight
19 Jun - 10:04:36 10° W 10:10:42 81° N 10:21:47 10° E daylight
19 Jun - 12:16:53 10° W 12:25:20 63° NNW 12:40:24 10° ENE daylight
19 Jun - 14:30:43 10° W 14:41:11 35° NNW 14:56:36 10° NNE daylight
19 Jun - 16:52:18 10° WNW 16:57:49 12° NW 17:03:52 10° NNW daylight
20 Jun - 06:54:27 10° NW 06:58:12 32° NNE 07:03:14 10° E daylight
20 Jun - 09:05:41 10° W 09:10:51 78° N 09:19:48 10° E daylight
20 Jun - 11:17:43 10° W 11:24:52 70° NNW 11:37:59 10° ENE daylight
20 Jun - 13:30:41 10° W 13:40:06 42° NNW 13:55:16 10° NE daylight
20 Jun - 15:47:46 10° WNW 15:56:24 18° NW 16:07:01 10° N daylight
21 Jun - 05:56:19 10° NNW 05:59:07 18° NNE 06:02:18 10° ENE visible
21 Jun - 08:06:49 10° WNW 08:11:18 66° NNE 08:18:22 10° E daylight
21 Jun - 10:18:41 10° W 10:24:45 76° N 10:35:43 10° ENE daylight
21 Jun - 12:31:06 10° W 12:39:19 49° NNW 12:53:28 10° NE daylight
21 Jun - 14:46:01 10° WNW 14:55:08 24° NNW 15:07:36 10° NNE daylight
22 Jun - 07:08:01 10° NW 07:11:59 48° NNE 07:17:27 10° E daylight
22 Jun - 09:19:44 10° W 09:24:54 79° N 09:33:49 10° E daylight
22 Jun - 11:31:50 10° W 11:38:53 57° NNW 11:51:28 10° ENE daylight
22 Jun - 13:45:26 10° W 13:54:05 30° NNW 14:07:05 10° NNE daylight
23 Jun - 06:09:18 10° NW 06:12:49 31° NNE 06:16:57 10° E visible
23 Jun - 08:20:49 10° W 08:25:18 76° N 08:32:25 10° E daylight
23 Jun - 10:32:46 10° W 10:38:47 65° NNW 10:49:29 10° ENE daylight
23 Jun - 12:45:33 10° W 12:53:21 36° NNW 13:05:57 10° NE daylight
23 Jun - 15:03:03 10° WNW 15:09:12 14° NNW 15:16:38 10° N daylight
24 Jun - 05:10:49 10° NNW 05:13:41 19° NNE 05:16:35 10° ENE visible
24 Jun - 07:21:52 10° WNW 07:25:55 65° NNE 07:31:33 10° E daylight
24 Jun - 09:33:49 10° W 09:38:57 72° N 09:47:46 10° ENE daylight
24 Jun - 11:46:07 10° W 11:52:55 43° NNW 12:04:29 10° NE daylight
24 Jun - 14:01:06 10° WNW 14:08:11 19° NNW 14:17:43 10° N daylight
25 Jun - 04:13:08 10° N 04:14:24 11° NNE 04:15:37 10° NE visible
25 Jun - 06:22:52 10° WNW 06:26:40 47° NNE 06:31:12 10° E visible
25 Jun - 08:34:52 10° W 08:39:22 76° N 08:46:26 10° E daylight
25 Jun - 10:46:56 10° W 10:52:49 50° NNW 11:02:56 10° NE daylight
25 Jun - 13:00:33 10° WNW 13:07:27 24° NNW 13:17:35 10° NNE daylight
26 Jun - 05:23:51 10° NW 05:27:31 32° NNE 05:31:12 10° E visible
26 Jun - 07:35:53 10° W 07:39:57 75° N 07:45:36 10° E daylight
26 Jun - 09:47:55 10° W 09:53:00 58° NNW 10:01:30 10° ENE daylight
26 Jun - 12:00:42 10° W 12:07:01 30° NNW 12:16:52 10° NNE daylight
26 Jun - 14:20:35 10° NW 14:22:24 10° NNW 14:24:19 10° NNW daylight
27 Jun - 04:24:50 10° NNW 04:28:17 21° NNE 04:31:22 10° ENE visible
27 Jun - 06:36:45 10° WNW 06:40:39 65° N 06:45:18 10° E visible
27 Jun - 08:48:58 10° W 08:53:25 67° N 09:00:22 10° ENE daylight
27 Jun - 11:01:18 10° W 11:06:53 35° NNW 11:15:54 10° NE daylight
27 Jun - 13:16:54 10° WNW 13:21:39 14° NNW 13:27:34 10° N daylight
28 Jun - 03:26:00 10° NNW 03:28:54 15° NNE 03:31:23 10° ENE visible
28 Jun - 05:37:27 10° WNW 05:41:27 49° NNE 05:45:26 10° E visible
28 Jun - 07:49:57 10° W 07:54:00 73° N 07:59:38 10° E daylight
28 Jun - 10:02:08 10° W 10:07:02 42° NNW 10:14:56 10° NE daylight
28 Jun - 12:16:04 10° WNW 12:21:11 18° NNW 12:28:11 10° NNE daylight
